Hourly Data Report for March 06, 2003

SHERBROOKE A
QUEBEC

45°26'00.000" N
71°41'00.000" W
241.40 m
7028124
71610
YSC

Download Data

Hourly Data (March 2003)
Hourly Data Report for March 6, 2003
TIME
LST
Temp Definition
°C
Dew Point Definition
°C
Rel Hum Definition
%
Precip. Amount Definition
mm

Wind Dir Definition
10's deg

Wind Spd Definition
km/h
Visibility Definition
km
Stn Press Definition
kPa
Hmdx Definition


Wind Chill Definition


Weather Definition


00:00 -8.7 -12.3 75   28 28 5.6 97.95   -18 Snow
01:00 -9.6 -13.3 74   27 13 3.5 98.06   -16 Snow
02:00 -9.9 -13.4 76   26 11 4.8 98.08   -15 Snow
03:00 -10.8 -14.4 75   27 15 3.1 98.16   -18 Snow
04:00 -12.2 -16.1 73   28 20 5.6 98.35   -21 Snow
05:00 -13.5 -17.4 72   31 7 15.0 98.37   -18  
06:00 -16.8 -20.0 76   27 9 15.0 98.42   -23  
07:00 -15.7 -19.5 73   30 7 15.0 98.46   -21  
08:00 -14.0 -19.3 64   34 11 24.1 98.50   -20 Mainly Clear
09:00 -13.4 -21.0 53   35 11 24.1 98.48   -20 Mainly Clear
10:00 -13.2 -23.0 44   32 15 24.1 98.44   -21 Mainly Clear
11:00 -12.8 -22.9 43   29 15 24.1 98.49   -20 Mostly Cloudy
12:00 -12.6 -22.1 45   29 17 24.1 98.50   -20 Mainly Clear
13:00 -12.6 -22.4 44   27 15 24.1 98.53   -20 Mostly Cloudy
14:00 -12.3 -22.0 44   29 19 24.1 98.53   -21 Mostly Cloudy
15:00 -11.6 -22.4 40   32 17 24.1 98.49   -19 Mainly Clear
16:00 -12.2 -24.2 36   35 15 24.1 98.54   -19 Mainly Clear
17:00 -13.1 -23.8 40   33 13 24.1 98.64   -20 Mainly Clear
18:00 -14.8 -25.0 42   29 6 15.0 98.79   -19  
19:00 -14.5 -24.6 42   31 4 15.0 98.93   -17  
20:00 -17.8 -25.2 52   28 6 15.0 99.01   -22  
21:00 -19.3 -24.8 62   24 7 15.0 99.08   -25  
22:00 -19.0 -25.0 59   24 4 15.0 99.13   -22  
23:00 -26.8 -31.3 66   11 6 15.0 99.19   -33  

Notes on Data Quality.

Legend

  • E = Estimated
  • M = Missing
  • NA = Not Available*
  • [empty] = Indicates an unobserved value
Date modified: